TimeAST,TemperatureF,Dew PointF,Humidity,Sea Level PressureIn,VisibilityMPH,Wind Direction,Wind SpeedMPH,Gust SpeedMPH,PrecipitationIn,Events,Conditions,WindDirDegrees,DateUTC
12:00 AM,46.4,35.6,66,29.98,9.0,West,19.6,27.6,N/A,,Unknown,270,2013-11-12 04:00:00
12:20 AM,46.4,37.4,71,29.97,9.0,West,18.4,24.2,N/A,Rain,Light Rain,270,2013-11-12 04:20:00
12:33 AM,46.4,35.6,66,29.98,9.0,West,19.6,27.6,N/A,,Unknown,260,2013-11-12 04:33:00
1:00 AM,46.4,35.6,66,29.99,9.0,West,19.6,-,N/A,,Unknown,270,2013-11-12 05:00:00
2:00 AM,46,36,59,30.00,9,West,18.4,,,,,260,2013-11-12 06:00:00
2:00 AM,46.4,35.6,66,30.00,9.0,West,18.4,25.3,N/A,,Unknown,260,2013-11-12 06:00:00
3:00 AM,46.4,35.6,66,30.01,9.0,West,19.6,25.3,N/A,,Unknown,270,2013-11-12 07:00:00
4:00 AM,46.4,37.4,71,30.02,9.0,WSW,18.4,-,N/A,,Unknown,250,2013-11-12 08:00:00
5:00 AM,46,37,60,30.02,9,West,10.4,,,,,270,2013-11-12 09:00:00
5:00 AM,46.4,37.4,71,30.02,9.0,West,10.4,-,N/A,,Unknown,270,2013-11-12 09:00:00
6:00 AM,46.4,39.2,76,30.02,8.0,WSW,8.1,-,N/A,,Unknown,250,2013-11-12 10:00:00
7:00 AM,48.2,39.2,71,30.03,8.0,SW,11.5,-,N/A,,Unknown,220,2013-11-12 11:00:00
8:00 AM,50,42,66,30.04,7,SW,12.7,,,,,230,2013-11-12 12:00:00
8:00 AM,50.0,42.8,76,30.04,7.0,SW,13.8,-,N/A,,Unknown,230,2013-11-12 12:00:00
9:00 AM,53.6,44.6,72,30.03,7.0,SSW,15.0,-,N/A,,Unknown,210,2013-11-12 13:00:00
10:00 AM,53.6,46.4,77,30.00,7.0,South,13.8,-,N/A,,Clear,180,2013-11-12 14:00:00
10:52 AM,53.6,48.2,82,29.98,8.0,South,16.1,-,N/A,Rain,Light Rain,190,2013-11-12 14:52:00
10:59 AM,53.6,48.2,82,29.98,4.0,South,17.3,-,N/A,Rain,Light Rain,190,2013-11-12 14:59:00
11:00 AM,53,48,78,29.99,3,South,17.3,,,Rain,Light Rain,190,2013-11-12 15:00:00
11:00 AM,53.6,48.2,82,29.99,3.5,South,17.3,-,N/A,Rain,Light Rain,190,2013-11-12 15:00:00
11:27 AM,51.8,48.2,88,29.98,2.5,SW,23.0,32.2,N/A,Rain,Rain,220,2013-11-12 15:27:00
11:51 AM,51.8,48.2,88,29.96,4.0,SSW,18.4,24.2,N/A,Rain,Light Rain,210,2013-11-12 15:51:00
12:00 PM,51.8,48.2,88,29.95,6.0,SSW,21.9,27.6,N/A,Rain,Light Rain,200,2013-11-12 16:00:00
12:11 PM,51.8,48.2,88,29.94,7.0,SSW,18.4,25.3,N/A,,Scattered Clouds,200,2013-11-12 16:11:00
1:00 PM,53.6,50.0,88,29.94,8.0,South,21.9,27.6,N/A,,Clear,190,2013-11-12 17:00:00
1:09 PM,53.6,48.2,82,29.93,7.0,South,24.2,31.1,N/A,Rain,Light Rain,190,2013-11-12 17:09:00
2:00 PM,52,48,82,29.93,5,South,20.7,,,,Unknown Precipitation,190,2013-11-12 18:00:00
2:00 PM,51.8,48.2,88,29.93,5.0,South,20.7,-,N/A,Rain,Light Rain,190,2013-11-12 18:00:00
3:00 PM,51.8,50.0,94,29.90,6.0,South,17.3,-,N/A,Rain,Light Rain,180,2013-11-12 19:00:00
3:19 PM,51.8,50.0,94,29.90,2.5,SSW,20.7,28.8,N/A,Rain,Light Rain,210,2013-11-12 19:19:00
3:33 PM,51.8,50.0,94,29.90,3.0,SW,20.7,-,N/A,Rain,Rain,220,2013-11-12 19:33:00
3:34 PM,51.8,50.0,94,29.90,2.1,SSW,19.6,-,N/A,Rain,Rain,210,2013-11-12 19:34:00
3:44 PM,51.8,50.0,94,29.90,1.5,SSW,19.6,-,N/A,Rain,Rain,210,2013-11-12 19:44:00
4:00 PM,51.8,50.0,94,29.90,6.0,South,12.7,18.4,N/A,Rain,Light Rain,180,2013-11-12 20:00:00
4:01 PM,51.8,50.0,94,29.89,6.0,South,12.7,18.4,N/A,,Mostly Cloudy,180,2013-11-12 20:01:00
4:13 PM,51.8,50.0,94,29.89,4.0,South,11.5,-,N/A,,Partly Cloudy,170,2013-11-12 20:13:00
5:00 PM,52,51,94,29.87,4,SSE,12.7,,,,,160,2013-11-12 21:00:00
5:00 PM,51.8,50.0,94,29.87,4.0,South,13.8,-,N/A,,Clear,170,2013-11-12 21:00:00
5:20 PM,53.6,50.0,88,29.88,7.0,SW,21.9,35.7,N/A,,Clear,230,2013-11-12 21:20:00
5:21 PM,53.6,48.2,82,29.89,7.0,WSW,23.0,35.7,N/A,,Clear,250,2013-11-12 21:21:00
6:00 PM,50.0,48.2,94,29.88,6.0,West,10.4,-,N/A,,Partly Cloudy,270,2013-11-12 22:00:00
7:00 PM,48.2,46.4,93,29.86,9.0,WNW,3.5,-,N/A,,Clear,300,2013-11-12 23:00:00
8:00 PM,47,46,93,29.84,7,Calm,Calm,,,,Overcast,,2013-11-13 00:00:00
8:00 PM,48.2,46.4,93,29.84,7.0,Calm,Calm,-,N/A,,Overcast,0,2013-11-13 00:00:00
8:21 PM,48.2,46.4,93,29.83,7.0,ENE,2.3,-,N/A,,Overcast,70,2013-11-13 00:21:00
8:51 PM,48.2,46.4,93,29.82,6.0,WNW,2.3,-,N/A,Rain,Light Rain,300,2013-11-13 00:51:00
8:57 PM,48.2,48.2,100,29.82,4.0,NNW,4.6,-,N/A,Rain,Light Rain,330,2013-11-13 00:57:00
9:00 PM,48.2,46.4,93,29.84,3.0,West,6.9,-,N/A,Rain,Light Rain,280,2013-11-13 01:00:00
9:01 PM,48.2,48.2,100,29.83,1.5,West,5.8,-,N/A,Rain,Light Rain,280,2013-11-13 01:01:00
9:02 PM,48.2,48.2,100,29.83,1.1,WNW,3.5,-,N/A,Rain,Rain,290,2013-11-13 01:02:00
9:08 PM,48.2,46.4,93,29.82,1.0,NW,9.2,-,N/A,Rain,Rain,310,2013-11-13 01:08:00
9:12 PM,48.2,46.4,93,29.82,2.0,WNW,5.8,-,N/A,Rain,Rain,300,2013-11-13 01:12:00
9:20 PM,48.2,46.4,93,29.83,2.5,WNW,10.4,-,N/A,Rain,Light Rain,300,2013-11-13 01:20:00
9:23 PM,48.2,46.4,93,29.83,3.0,WNW,8.1,-,N/A,Rain,Light Rain,300,2013-11-13 01:23:00
9:26 PM,48.2,46.4,93,29.82,2.4,WNW,10.4,-,N/A,Rain,Rain,300,2013-11-13 01:26:00
9:32 PM,48.2,46.4,93,29.81,2.5,WNW,12.7,-,N/A,Rain,Light Rain,300,2013-11-13 01:32:00
9:43 PM,48.2,46.4,93,29.82,6.0,West,9.2,-,N/A,Rain,Light Rain,280,2013-11-13 01:43:00
9:50 PM,48.2,46.4,93,29.81,6.0,WNW,9.2,-,N/A,Rain,Light Rain,290,2013-11-13 01:50:00
10:00 PM,48.2,46.4,93,29.82,6.0,WNW,8.1,-,N/A,Rain,Light Rain,290,2013-11-13 02:00:00
10:07 PM,46.4,44.6,93,29.80,2.5,NW,23.0,28.8,N/A,Rain,Rain,310,2013-11-13 02:07:00
10:11 PM,46.4,44.6,93,29.79,2.2,WNW,19.6,28.8,N/A,Rain,Rain,300,2013-11-13 02:11:00
10:24 PM,46.4,44.6,93,29.79,6.0,NW,20.7,-,N/A,Rain,Light Rain,310,2013-11-13 02:24:00
11:00 PM,46,43,85,29.81,4,WNW,19.6,,,Rain,Heavy Rain,300,2013-11-13 03:00:00
11:00 PM,46.4,42.8,87,29.81,4.0,WNW,17.3,27.6,N/A,Rain,Rain,300,2013-11-13 03:00:00